Location: Stavanger
(58.9670°N, 5.7500°E)
Time: 09:57:54
(UTC+02:00)

ISS - Pass Details

Date: 27 March 2019
Orbit: 408 x 410 km, 51.6° (Epoch: 25 April)

Event Time Altitude Azimuth Distance (km) Brightness Sun altitude
Rises 20:08:12 0° 232° (SW) 2,334 0.5 -8.5°
Reaches altitude 10° 20:10:39 10° 215° (SW) 1,474 -0.8 -8.8°
Maximum altitude 20:13:07 20° 166° (SSE) 1,027 -2.1 -9.1°
Enters shadow 20:14:59 13° 126° (SE) 1,303 -1.9 -9.3°
